Dewpoint
51 51 52 52 52 52 52 52 52 52 52 52 52 52 52 51 51 51 52 55 52 47 47 46 46 44 44 42 39 41 38 39 40 36 34 32 31 32 31 29 26 27 27 29 30 28 24 33 31 29 32 37 35 38
50 50 50 51 51 51 52 52 52 52 52 52 52 52 52 51 51 52 50 55 55 50 48 52 51 51 49 47 45 43 40 41 40 37 36 34 34 36 32 29 31 28 28 26 29 27 32 33 32 34 35 36 39 39
48 49 50 50 50 50 50 51 51 52 52 51 52 52 52 51 51 51 52 54 51 47 46 47 44 47 50 49 49 43 44 43 43 41 39 37 35 37 32 33 33 34 35 32 31 32 32 34 35 36 37 39 41 41
47 47 48 49 49 49 50 50 50 50 51 51 51 51 51 51 51 51 50 53 51 45 42 41 47 46 48 48 48 49 46 47 47 46 42 39 37 40 36 36 34 36 37 34 34 34 34 35 35 37 40 42 41 37
46 47 47 47 47 48 48 49 49 49 50 50 50 50 50 50 50 51 51 52 53 48 41 40 44 45 46 47 46 47 47 47 46 42 41 38 39 38 38 37 36 37 35 34 32 34 36 36 37 38 38 35 33 32
46 46 46 46 46 46 47 47 48 48 49 49 50 50 50 50 50 49 44 50 53 53 45 39 42 42 43 43 43 44 46 46 45 42 40 41 41 38 35 33 35 35 36 37 36 37 37 38 37 38 35 30 28 30
45 46 46 45 46 46 46 47 47 47 48 48 49 49 49 49 49 46 42 45 50 51 43 39 37 40 40 41 43 43 44 44 44 43 41 41 40 41 36 34 36 36 37 37 37 37 36 34 29 26 26 26 27 33
44 46 46 45 45 45 46 46 47 47 47 48 48 48 48 48 47 44 46 48 49 44 41 38 35 36 40 39 39 41 40 40 42 42 39 39 39 39 34 36 36 36 35 34 33 31 29 27 26 25 25 26 26 32
44 46 46 45 44 44 45 46 46 47 47 47 47 47 44 42 40 42 46 46 45 41 37 33 32 33 39 39 38 38 38 35 38 36 37 38 35 33 36 35 34 33 32 28 27 27 27 27 26 26 25 25 29 32
44 44 45 45 44 44 44 45 46 45 45 45 44 39 36 40 46 45 41 37 37 35 34 32 36 34 37 37 35 34 35 32 30 32 37 35 33 34 33 33 33 26 26 27 26 25 24 23 24 24 25 27 31 32
44 45 45 43 43 44 44 45 45 44 42 42 37 37 42 45 42 38 32 32 32 30 32 33 35 35 39 34 32 34 31 32 27 28 32 29 29 29 30 30 27 25 26 25 25 22 20 20 21 23 26 29 30 32
44 45 44 43 44 44 45 45 45 41 41 41 41 43 42 39 35 31 29 31 30 28 33 32 33 36 36 39 33 33 29 30 23 30 28 24 27 26 26 24 25 25 25 25 23 22 22 23 24 27 29 29 31 33
44 44 44 44 43 43 44 41 38 41 41 40 35 34 33 33 27 25 24 28 28 33 34 34 32 33 35 34 32 29 27 25 31 27 23 24 27 26 26 26 26 27 25 24 24 25 26 27 29 29 30 30 31 31
44 44 43 43 42 42 41 38 40 40 38 32 29 21 26 24 25 27 28 30 32 34 33 33 32 31 31 28 28 24 26 29 25 21 22 25 27 27 26 26 25 23 24 24 25 27 27 27 28 29 30 31 31 29
43 43 42 42 41 40 39 39 38 39 35 28 28 20 25 30 31 31 33 32 33 34 33 29 29 29 28 26 27 25 22 19 21 19 24 25 26 25 25 22 21 21 24 26 27 27 27 27 28 30 31 31 30 28
42 40 40 42 42 40 39 37 38 37 33 30 28 26 28 28 28 29 30 32 35 31 30 30 26 22 21 23 22 20 19 17 20 24 25 25 25 25 24 25 23 24 27 26 26 26 27 28 29 31 32 31 30 29
36 36 41 41 40 38 38 37 34 29 28 26 26 29 31 29 29 30 29 30 33 28 24 25 19 15 21 19 19 21 18 18 24 23 24 23 23 23 24 23 23 25 25 23 23 25 28 29 31 31 29 30 31 30
36 40 40 38 36 38 35 35 30 27 24 26 24 25 26 27 27 27 28 31 30 28 23 20 22 16 12 10 10 13 20 22 23 24 24 23 24 24 24 24 24 24 24 24 25 27 28 31 30 29 30 31 30 29
38 39 38 37 37 33 28 29 32 23 24 26 26 28 28 29 29 29 30 30 32 30 25 23 18 17 15 16 14 16 20 23 24 24 24 24 24 24 25 26 26 26 26 26 26 26 29 30 30 30 32 30 29 29
38 39 37 37 37 30 29 29 31 28 25 25 25 24 25 26 28 31 31 31 30 29 25 23 21 19 19 21 23 24 24 24 23 24 24 24 26 26 25 25 26 26 27 27 27 28 30 30 31 31 31 31 30 29
34 37 37 37 35 34 29 26 24 24 24 22 25 25 24 26 27 28 28 28 26 24 22 21 19 20 22 23 24 24 24 24 24 25 26 25 24 25 26 27 28 28 28 29 29 30 31 31 32 32 31 31 31 31
36 36 35 36 31 29 28 27 24 25 24 22 21 23 22 22 24 26 29 27 25 23 22 20 21 22 23 24 24 25 26 26 26 25 24 24 24 26 28 29 30 30 29 29 29 31 31 32 32 31 31 31 30 29
35 34 32 31 26 25 21 28 24 24 22 21 22 20 20 21 22 27 23 24 24 24 24 24 25 25 25 26 26 25 25 24 23 23 24 27 29 29 30 30 31 31 30 30 32 31 31 32 31 30 30 29 28 28
36 30 26 25 25 21 26 24 24 23 21 20 20 18 19 20 22 21 19 19 20 22 22 23 24 24 24 24 24 24 25 25 25 25 27 29 30 29 29 30 30 30 32 32 32 32 32 31 31 29 29 29 27 26
25 25 26 23 26 21 22 22 21 20 18 19 18 16 17 18 17 16 14 15 17 20 22 24 25 26 25 24 25 25 26 27 25 26 30 30 28 28 27 29 31 32 32 32 31 31 31 31 30 29 28 27 27 27
21 25 23 21 22 20 20 16 19 18 17 16 16 17 18 17 16 15 16 15 18 22 24 25 24 25 25 26 24 24 25 31 30 28 28 28 28 28 27 26 27 28 30 33 31 30 30 29 29 28 27 28 28 27
21 22 25 26 24 22 20 20 19 17 16 16 17 17 16 16 15 14 14 16 21 24 27 29 29 26 23 24 26 30 32 31 30 28 29 28 28 28 28 27 26 29 31 32 31 30 29 29 29 28 28 28 27 24
23 22 21 23 21 22 20 19 18 17 17 18 16 13 13 13 12 15 17 26 26 27 26 26 27 27 28 29 31 30 28 28 28 29 30 29 28 28 30 30 31 32 30 31 31 30 31 31 31 29 27 26 26 26
24 22 21 20 22 20 20 19 19 19 18 16 14 14 15 17 18 21 25 28 30 29 28 28 28 31 31 31 29 27 27 27 28 26 24 25 23 26 28 28 30 31 30 30 31 31 31 31 31 30 28 27 26 27
22 24 21 18 17 17 18 21 18 20 22 23 23 23 24 25 26 28 28 28 28 29 30 30 31 29 27 26 25 26 28 30 31 28 24 22 24 26 28 29 30 30 31 30 29 27 28 29 29 28 27 26 25 24
21 23 20 20 18 19 21 22 25 25 26 25 26 25 24 25 27 28 29 28 29 29 28 27 27 28 28 27 26 25 24 26 25 24 23 25 28 29 28 28 28 29 28 27 27 26 26 26 26 25 24 23 23 22
22 20 20 18 18 21 25 23 22 22 23 24 25 26 26 26 25 24 21 22 24 24 24 24 24 23 25 25 27 25 24 21 20 20 19 19 20 22 25 28 29 28 27 26 26 25 24 24 24 23 22 21 21 19
21 21 21 21 22 21 19 19 20 20 21 21 22 24 25 24 23 19 22 22 21 19 18 19 20 21 25 25 25 24 21 20 20 20 19 18 17 17 18 18 21 23 25 25 24 23 22 22 20 21 20 17 15 12
Wind_Speed
11 14 21 19 19 20 19 18 17 16 14 13 11 8 5 2 3 3 4 4 2 2 6 4 3 6 5 2 1 2 4 2 4 5 5 6 8 6 5 6 5 4 4 8 6 8 12 4 16 14 20 19 28 25
8 9 13 18 19 19 19 18 18 17 16 15 13 11 9 7 4 2 0 4 4 3 4 4 8 8 4 2 1 3 5 2 8 5 7 5 8 5 9 14 7 10 14 11 13 11 12 22 22 22 29 30 27 19
5 5 5 10 14 17 17 17 18 17 17 17 16 14 13 12 11 7 1 1 5 0 8 7 14 10 8 9 5 6 4 6 7 9 8 9 7 8 9 10 9 5 10 18 18 10 28 26 30 28 24 21 12 13
9 7 4 5 8 11 12 14 15 16 17 17 15 15 16 15 16 12 5 3 4 3 6 10 4 12 5 11 12 11 16 11 8 7 12 8 7 12 9 12 17 9 8 16 25 29 29 22 20 23 11 11 7 8
8 8 6 5 1 3 10 12 14 17 16 16 15 16 16 16 17 12 6 5 7 5 5 5 5 8 9 9 15 16 16 16 10 9 12 13 6 7 8 8 10 14 25 19 32 27 23 30 15 14 9 5 11 8
5 7 6 5 4 3 7 11 14 15 17 16 15 15 15 15 15 4 5 10 13 8 6 6 3 4 9 16 18 19 19 13 11 9 8 7 9 13 11 18 14 21 17 21 21 19 26 15 18 11 8 10 15 6
6 6 8 7 7 8 6 2 9 12 13 14 15 15 12 17 12 6 6 3 8 10 3 6 6 1 4 2 3 8 7 8 10 9 10 11 11 9 6 24 29 22 17 22 29 26 10 6 6 10 12 12 13 8
6 6 7 8 7 9 10 8 5 6 12 12 11 11 10 14 9 3 4 3 6 5 3 5 4 4 3 2 4 5 1 2 4 5 0 5 3 7 10 18 18 14 17 18 4 9 8 8 10 11 11 13 13 2
9 9 7 5 3 5 8 9 8 10 8 11 15 22 7 3 4 4 8 11 8 3 6 4 4 2 2 2 2 2 3 3 4 5 6 6 6 13 14 17 14 16 5 5 13 12 14 12 11 13 12 14 11 5
11 9 7 5 4 4 5 7 10 16 16 12 2 5 4 2 14 9 3 2 2 3 2 5 3 4 5 4 2 1 1 4 4 5 3 7 14 18 20 21 16 10 10 12 8 5 6 12 13 16 15 12 12 9
11 11 11 9 7 6 6 7 8 3 4 2 4 4 4 5 1 3 2 2 1 3 5 3 8 3 2 5 6 3 1 2 3 5 5 5 5 8 8 6 12 11 8 5 9 10 13 15 18 20 22 17 15 11
14 15 14 11 9 8 8 8 7 2 2 4 9 7 3 1 3 3 5 3 4 4 6 4 3 1 3 2 2 4 1 2 7 7 2 4 6 8 8 11 16 12 11 10 10 12 17 18 20 21 20 20 14 11
18 17 15 14 13 10 9 9 1 3 2 5 5 3 3 1 4 5 7 4 4 3 1 2 3 3 2 6 2 1 3 8 3 3 4 6 6 14 14 14 13 11 10 11 15 13 14 18 20 19 21 20 13 12
17 17 16 15 13 11 9 4 3 4 4 3 3 4 5 4 4 2 1 3 2 3 9 8 4 2 2 2 1 2 6 2 4 4 3 8 10 12 13 14 15 17 14 14 13 14 17 19 22 21 16 17 13 14
18 17 15 12 12 10 6 4 3 3 3 2 2 3 5 2 5 4 4 4 3 4 5 4 4 2 2 2 4 4 3 5 5 4 4 4 6 7 6 9 12 16 16 14 14 15 19 22 21 19 16 16 15 11
21 15 4 15 14 11 6 4 4 3 3 3 1 1 1 4 4 2 2 6 4 3 2 2 3 2 4 4 5 8 3 8 2 2 4 7 8 8 10 9 13 15 14 17 20 23 22 22 21 17 14 15 14 14
9 3 14 17 15 12 7 3 2 3 1 1 3 1 2 3 2 5 7 4 5 5 3 2 3 9 4 5 5 6 7 3 7 13 12 13 14 16 15 18 19 17 17 21 22 23 23 19 8 13 20 19 13 12
4 15 21 19 13 7 0 2 3 2 3 6 4 7 3 1 2 4 5 2 5 5 3 5 4 6 7 8 17 10 8 13 13 12 15 19 16 17 19 21 22 22 23 22 23 23 20 11 12 18 18 12 10 10
13 17 23 22 10 4 3 1 1 2 7 3 4 7 5 3 11 6 9 8 6 4 2 3 7 8 13 8 13 18 18 15 14 14 16 18 19 19 21 21 21 21 21 21 20 21 17 12 13 16 14 9 10 11
20 19 18 12 4 3 3 2 1 2 2 4 5 7 5 4 4 7 8 7 4 3 9 7 9 16 13 14 12 12 15 15 16 17 20 20 17 17 20 20 20 21 20 20 18 17 14 14 11 12 11 7 10 10
11 7 9 6 3 3 1 4 3 2 4 4 7 9 4 8 10 7 7 9 9 6 7 16 23 22 14 18 18 17 19 18 21 18 19 20 20 18 19 19 17 18 17 15 17 19 15 15 14 10 9 6 3 6
6 11 3 3 2 2 0 3 3 4 3 3 1 2 2 4 8 8 8 11 8 12 15 20 18 17 18 18 18 17 18 19 18 16 17 17 18 19 18 17 17 17 17 18 18 19 16 17 11 9 9 8 8 7
10 4 3 2 2 3 4 3 4 4 4 3 2 3 4 4 5 8 7 8 12 17 17 17 19 20 21 20 17 18 19 21 20 18 18 16 16 15 15 16 14 15 20 19 13 13 14 10 9 10 9 8 9 7
4 4 5 6 7 4 3 5 3 3 4 4 5 5 5 7 6 7 9 12 18 16 16 18 17 18 16 16 17 16 16 13 13 13 14 12 14 16 14 16 16 16 15 17 15 11 6 6 7 8 7 8 8 8
6 7 5 6 7 5 7 6 6 6 6 9 6 6 4 5 5 6 13 17 15 17 17 16 14 14 15 14 13 16 14 10 13 15 9 6 13 16 17 13 14 13 14 14 6 1 1 4 8 8 8 9 9 10
7 9 11 12 9 8 11 7 10 11 6 8 8 5 4 4 5 8 5 6 9 9 10 11 11 10 10 11 12 13 11 1 2 9 11 8 13 14 18 19 18 15 9 10 8 9 8 9 10 10 10 10 10 8
7 11 7 7 6 7 4 5 6 6 7 8 5 6 6 6 8 8 8 9 4 1 1 4 6 7 9 12 12 6 1 2 6 12 14 12 13 14 16 18 18 13 12 15 11 10 10 10 11 12 12 10 10 9
9 5 15 11 8 9 8 5 6 9 8 6 4 9 7 9 10 6 4 5 5 5 6 8 10 12 13 12 7 7 11 11 13 14 14 14 12 14 14 14 15 13 12 13 9 8 9 10 11 11 11 11 11 13
6 7 9 15 12 7 9 10 12 9 9 11 15 17 16 12 13 14 9 8 7 9 14 16 14 6 7 6 7 10 10 11 12 15 16 12 13 8 10 12 12 11 9 9 10 10 11 12 12 12 12 12 9 9
6 10 8 9 15 14 14 12 14 13 13 15 16 14 16 21 23 16 16 17 16 17 14 8 4 4 10 9 10 8 8 7 5 5 6 9 11 15 14 14 13 10 8 8 3 4 7 5 4 7 10 9 8 7
4 11 12 15 18 20 21 18 15 15 13 15 16 19 24 20 16 7 1 4 4 3 3 3 5 6 6 3 2 3 4 6 9 8 9 9 10 7 8 9 8 8 8 7 5 4 5 5 6 7 7 5 4 4
6 9 15 20 21 17 11 11 14 15 15 15 19 17 19 15 14 0 7 9 5 4 6 7 5 4 7 6 6 7 8 7 9 9 10 10 10 11 12 10 8 7 7 7 7 7 7 8 5 4 4 6 7 8
12 14 16 14 7 6 9 10 7 11 15 19 18 17 17 14 10 3 5 11 8 8 8 8 8 9 7 5 7 8 10 10 9 10 11 12 13 13 12 12 12 12 10 8 9 8 7 7 7 6 8 11 12 13
Wind_Direction
223 209 196 198 204 206 208 213 214 217 222 223 220 216 220 204 75 63 293 343 76 207 279 285 294 259 312 7 203 187 14 350 99 196 211 227 217 246 266 227 260 229 280 240 236 243 274 346 346 343 303 309 314 308
203 203 197 193 201 205 204 207 216 214 217 224 224 220 210 189 170 130 270 50 46 186 261 323 284 272 226 247 234 179 198 175 197 173 211 205 227 230 235 266 232 257 218 255 223 245 288 316 304 309 303 303 303 309
123 169 177 185 195 198 203 204 209 214 215 220 220 216 215 195 183 179 212 19 67 356 277 263 263 276 265 259 195 235 231 210 200 191 194 219 222 175 207 237 224 235 267 261 285 270 280 303 300 293 297 301 3 2
92 93 121 180 190 188 194 202 209 215 216 215 217 215 214 202 192 177 189 186 118 117 249 251 290 263 239 251 242 225 236 246 250 256 257 223 225 196 223 243 230 207 219 263 264 278 284 282 286 301 342 349 351 313
107 103 103 103 147 208 218 211 213 218 218 218 212 213 210 204 194 188 214 220 185 194 269 247 307 257 252 250 245 240 237 235 237 240 238 242 221 233 233 228 228 206 254 250 269 276 283 285 333 321 30 312 291 357
139 106 101 97 102 164 220 221 219 217 216 217 216 217 208 192 169 145 249 213 206 177 270 266 289 264 249 252 253 251 240 239 239 219 238 234 211 205 253 257 241 250 243 240 263 280 290 327 319 317 314 13 12 34
139 126 98 84 72 77 86 163 217 218 215 211 208 210 203 183 164 201 189 150 182 159 213 275 263 269 299 273 254 251 245 244 242 247 235 245 226 206 258 275 278 275 267 276 272 277 311 6 336 38 27 345 335 90
131 139 131 109 83 71 69 69 83 183 199 197 197 192 184 161 115 138 19 67 103 125 152 240 257 290 203 189 217 358 347 2 236 244 259 235 259 206 240 253 266 270 268 271 313 65 79 41 2 2 355 352 325 244
147 151 157 145 112 73 69 67 73 85 120 154 132 116 100 63 129 128 100 72 52 141 190 201 207 247 182 124 105 38 55 262 307 242 216 183 211 233 247 265 284 286 295 90 69 52 34 15 342 328 331 327 328 292
169 158 160 155 132 128 123 107 106 101 98 110 94 73 76 33 118 126 48 67 57 357 89 222 215 227 182 169 151 182 139 234 260 243 244 226 253 266 270 272 284 84 83 69 57 54 358 2 332 317 316 329 313 281
176 163 159 152 135 130 145 150 146 101 337 75 72 76 93 148 87 62 102 170 187 249 200 232 206 193 48 171 189 211 240 245 259 278 213 246 263 266 284 122 103 95 111 138 89 37 15 349 328 323 319 316 322 267
179 169 161 153 149 148 141 144 139 6 31 92 114 114 109 148 65 148 186 179 209 244 171 183 208 163 32 3 123 171 257 217 258 326 280 266 270 266 124 103 77 76 64 54 37 7 355 330 311 308 305 303 306 293
176 166 159 155 156 152 145 137 333 277 90 47 59 82 122 124 179 197 192 191 201 161 111 114 105 89 72 41 73 214 239 240 329 246 239 233 320 57 53 41 29 45 27 359 342 334 317 299 298 303 307 297 297 287
163 159 152 149 150 147 146 129 90 17 39 73 123 155 193 182 235 197 197 137 134 110 107 106 84 92 98 89 181 241 241 288 254 246 223 26 34 45 34 24 9 349 327 309 302 299 297 301 303 300 292 287 278 270
138 133 129 137 137 131 132 140 87 21 78 91 111 196 201 150 76 77 92 113 82 59 70 83 82 100 133 198 214 267 250 244 229 243 103 32 24 27 18 350 337 326 309 298 297 293 295 302 298 296 299 295 267 243
122 112 106 138 134 130 155 99 25 63 56 122 184 155 116 130 154 126 143 147 174 136 63 72 121 146 224 211 206 216 229 227 206 70 -0 353 346 333 314 299 318 312 297 299 300 295 287 288 283 289 303 299 279 242
106 92 144 137 139 128 90 107 82 62 83 115 218 178 103 117 179 172 169 188 144 135 154 142 194 218 204 224 223 216 221 305 359 343 335 324 317 315 319 316 309 295 287 293 290 285 281 280 283 305 305 298 273 221
71 142 134 123 122 123 266 68 99 139 219 223 213 188 175 69 182 174 181 172 154 194 189 219 226 223 227 228 233 248 314 324 322 322 321 316 318 322 311 296 295 290 287 286 285 283 287 274 298 303 296 283 232 216
136 147 146 154 169 138 117 73 189 228 226 242 192 154 175 200 213 220 193 222 258 226 259 251 234 235 237 257 276 288 292 294 301 309 304 299 299 296 293 292 290 289 290 291 290 294 280 268 288 302 282 231 220 223
139 149 158 163 35 103 110 148 329 241 235 216 175 207 201 211 204 208 207 202 217 209 219 227 236 247 264 273 275 289 297 295 299 298 296 297 294 293 293 293 292 292 293 292 293 287 270 289 293 265 248 234 217 228
106 119 89 69 42 17 106 151 193 233 279 256 206 191 223 221 201 195 205 196 213 223 239 236 249 256 262 271 276 276 279 280 278 271 276 289 296 296 292 292 291 292 292 298 298 296 281 272 280 236 210 197 199 187
99 103 92 68 81 43 28 221 213 190 213 243 260 227 248 234 230 210 184 191 225 225 232 249 257 261 267 271 273 270 269 273 274 274 280 281 288 295 298 297 297 295 295 295 292 284 287 288 250 193 188 196 190 162
100 78 86 110 127 182 254 191 203 208 209 210 201 224 235 220 225 169 219 219 231 237 243 249 256 256 260 269 272 276 274 274 277 273 275 283 288 286 300 301 300 302 300 296 286 283 283 279 204 164 162 172 173 173
73 132 157 185 196 203 167 196 218 219 218 203 208 226 218 209 201 213 236 243 253 263 259 258 259 267 269 268 271 273 278 271 269 288 290 292 304 304 303 297 293 289 286 290 289 279 228 158 154 164 179 195 196 203
140 192 189 199 195 197 195 192 198 212 228 206 223 235 239 185 223 247 262 271 268 266 260 256 255 250 257 272 278 282 285 276 284 285 288 309 307 305 304 296 299 288 299 290 257 155 154 200 195 198 204 205 207 213
202 195 193 197 182 195 195 194 200 210 205 204 233 230 193 209 224 246 248 246 254 259 260 254 259 268 272 265 279 299 310 112 347 301 300 314 308 295 294 296 299 298 303 252 253 250 245 228 213 206 210 215 218 218
206 208 200 227 192 182 221 221 205 212 205 209 212 200 202 225 233 246 255 247 219 154 171 199 217 262 285 290 290 281 145 324 298 295 292 289 288 277 267 273 279 285 319 303 257 247 243 228 221 216 216 212 210 212
223 221 193 189 212 208 208 216 208 208 218 223 206 212 214 213 236 236 225 191 205 209 237 263 265 263 260 266 274 297 311 301 291 281 273 269 270 272 268 263 265 274 287 285 259 244 237 240 232 217 214 211 212 214
231 215 189 210 205 211 222 224 230 226 219 227 242 244 250 259 274 282 287 297 297 265 271 273 271 259 290 296 298 303 292 290 293 297 301 303 323 324 344 323 313 293 275 273 268 257 253 245 235 215 201 202 184 158
229 192 219 223 219 226 228 220 245 244 241 241 250 266 279 273 266 270 276 277 274 271 269 262 267 276 285 286 286 285 286 292 291 319 327 325 319 308 310 314 312 298 272 266 270 335 316 276 175 128 126 130 138 149
229 195 227 236 245 249 252 257 259 261 259 260 257 251 257 266 280 285 338 16 3 22 13 319 294 272 266 280 315 327 313 60 37 22 2 331 325 345 348 353 2 24 46 57 49 38 42 51 90 104 109 107 112 110
224 229 244 253 257 260 258 266 267 261 262 257 255 249 258 263 265 117 15 2 10 38 44 48 48 31 9 4 352 86 81 61 40 28 18 16 13 9 8 6 21 39 50 55 61 59 48 41 66 99 136 142 140 114
264 265 268 279 272 255 252 254 259 262 246 246 249 242 239 240 261 110 68 31 34 45 22 359 345 336 341 46 36 106 105 98 72 50 44 42 39 34 26 19 15 18 27 54 54 54 50 56 47 68 96 105 98 95